Simultaneous Nadir Overpasses (SNOs) Predictions

Prediction of SNOs between NOAA-15 and METOP-C Satellite Orbit:

Table of predicted SNOs for the next 14.0 days since TLE Epoch: 1/21/2023
Index Date (NOAA-15) Time (NOAA-15) Lat,Lon (NOAA-15) SZA (NOAA-15 ) Date (METOP-C) Time (METOP-C) Lat,Lon (METOP-C) SZA (METOP-C ) Distance(km) Time Diff (sec)
1 01/31/2023 14:56:57 -81.00, 175.86 79.98 01/31/2023 14:55:51 -80.97, 172.10 80.36 65.67 66
2 01/31/2023 15:47:28 81.07, -18.32 99.93 01/31/2023 15:46:25 81.07, -18.14 99.93 3.16 63
3 01/31/2023 16:38:02 -81.06, 149.28 80.07 01/31/2023 16:37:06 -81.07, 149.19 80.09 2.00 56
4 01/31/2023 17:28:29 81.07, -43.43 99.92 01/31/2023 17:27:47 81.07, -43.62 99.89 3.18 42
5 01/31/2023 18:19:04 -81.07, 123.80 80.10 01/31/2023 18:18:28 -81.07, 123.71 80.13 1.60 36
6 01/31/2023 19:09:31 81.08, -68.92 99.89 01/31/2023 19:09:08 81.08, -68.73 99.90 3.33 23
7 01/31/2023 20:00:05 -81.06, 98.69 80.11 01/31/2023 19:59:49 -81.08, 98.61 80.12 1.81 16
8 01/31/2023 20:50:32 81.07, -94.03 99.88 01/31/2023 20:50:30 81.07, -94.21 99.86 3.01 2
9 01/31/2023 21:41:07 -81.07, 73.20 80.14 01/31/2023 21:41:11 -81.07, 73.13 80.15 1.40 4
10 01/31/2023 22:31:33 81.06,-119.15 99.86 01/31/2023 22:31:51 81.08,-119.31 99.87 3.37 18
11 01/31/2023 23:22:08 -81.07, 48.09 80.16 01/31/2023 23:22:32 -81.08, 48.02 80.15 1.63 24
12 02/01/2023 00:12:35 81.07,-144.63 99.83 02/01/2023 00:13:13 81.07,-144.79 99.83 2.84 38
13 02/01/2023 01:03:10 -81.08, 22.60 80.19 02/01/2023 01:03:54 -81.07, 22.54 80.18 1.20 44
14 02/01/2023 01:53:36 81.07,-169.74 99.82 02/01/2023 01:54:34 81.08,-169.90 99.84 3.20 58
15 02/01/2023 02:44:11 -81.07, -2.51 80.20 02/01/2023 02:45:15 -81.08, -2.56 80.18 1.45 64



Historial Predications of SNOs between NOAA-15 and METOP-C
